Weather History for KCUB - May, 2013

Change the Weather History Date:

Thursday, May 9, 2013

  Actual Average Record
Temperature  
Mean Temperature 71 °F 70 °F  
Max Temperature 85 °F 82 °F 94 °F (2014)
Min Temperature 56 °F 58 °F 53 °F (1999)
Degree Days  
Heating Degree Days 0 1  
Month to date heating degree days 16 9  
Since 1 July heating degree days 2191 2310  
Cooling Degree Days 6 6  
Month to date cooling degree days 9 47  
Year to date cooling degree days 123 146  
Growing Degree Days 20 (Base 50)    
Moisture  
Dew Point 55 °F    
Average Humidity 64    
Maximum Humidity 93    
Minimum Humidity 31    
Precipitation  
Precipitation 0.00 in 0.09 in 0.70 in (2012)
Month to date precipitation 0.66 0.74  
Year to date precipitation 15.46 14.59  
Sea Level Pressure  
Sea Level Pressure 30.06 in    
Wind  
Wind Speed 2 mph (West)    
Max Wind Speed 12 mph    
Max Gust Speed 17 mph    
Visibility 10 miles    
Events      
T = Trace of Precipitation, MM = Missing Value Source: NWS Daily Summary

Daily Weather History Graph

Daily Weather History Graph

Search for Another Location

Airport or City:

Trip Planner

Search our weather history database for the weather conditions in past years. The results will help you decide how hot, cold, wet, or windy it might be!

Date:

Astronomy

May. 09, 2013 Rise Set
Actual Time 6:27 AM EDT 8:14 PM EDT
Civil Twilight 5:59 AM EDT 8:41 PM EDT
Nautical Twilight 5:27 AM EDT 9:14 PM EDT
Astronomical Twilight 4:52 AM EDT 9:49 PM EDT
Moon 6:09 AM EDT (5/9) 8:08 PM EDT (5/9)
Length of Visible Light 14h 41m
Length of Day
13h 46m
Waning Crescent, 0% of the Moon is Illuminated
May 9
Waning Crescent
May 9
New
May 18
First Quarter
May 25
Full
May 31
Last Quarter

Hourly Weather History & Observations

Time (EDT) Temp. Heat Index Dew Point Humidity Pressure Visibility Wind Dir Wind Speed Gust Speed Precip Events Conditions
12:53 AM 61.0 °F - 57.0 °F 87% 30.03 in 10.0 mi Calm Calm - N/A   Clear
1:53 AM 61.0 °F - 55.9 °F 83% 30.02 in 10.0 mi Calm Calm - N/A   Clear
2:53 AM 63.0 °F - 54.0 °F 72% 30.01 in 10.0 mi Calm Calm - N/A   Clear
3:53 AM 59.0 °F - 55.0 °F 87% 30.01 in 10.0 mi Calm Calm - N/A   Clear
4:53 AM 57.9 °F - 55.0 °F 90% 30.01 in 10.0 mi Calm Calm - N/A   Clear
5:53 AM 57.0 °F - 54.0 °F 89% 30.03 in 9.0 mi Calm Calm - N/A   Clear
6:53 AM 57.0 °F - 54.0 °F 89% 30.06 in 7.0 mi Calm Calm - N/A   Clear
7:53 AM 61.0 °F - 57.0 °F 87% 30.08 in 10.0 mi Calm Calm - N/A   Clear
8:53 AM 68.0 °F - 59.0 °F 73% 30.09 in 10.0 mi WSW 3.5 mph - N/A   Clear
9:53 AM 72.0 °F - 57.9 °F 61% 30.09 in 10.0 mi Calm Calm - N/A   Clear
10:53 AM 75.9 °F - 55.0 °F 48% 30.09 in 10.0 mi West 6.9 mph - N/A   Clear
11:53 AM 79.0 °F - 55.0 °F 44% 30.10 in 10.0 mi Variable 4.6 mph - N/A   Clear
1:53 PM 82.9 °F 81.8 °F 53.1 °F 36% 30.09 in 10.0 mi SW 4.6 mph - N/A   Clear
2:53 PM 84.0 °F - 51.1 °F 32% 30.07 in 10.0 mi West 8.1 mph - N/A   Scattered Clouds
4:53 PM 84.0 °F - 50.0 °F 31% 30.04 in 10.0 mi WNW 9.2 mph - N/A   Clear
5:53 PM 84.0 °F - 50.0 °F 31% 30.04 in 10.0 mi Calm Calm - N/A   Clear
6:53 PM 84.0 °F - 52.0 °F 33% 30.04 in 10.0 mi West 4.6 mph - N/A   Clear
7:53 PM 80.1 °F 80.2 °F 55.9 °F 43% 30.04 in 10.0 mi Calm Calm - N/A   Clear
8:53 PM 73.0 °F - 59.0 °F 61% 30.06 in 10.0 mi Calm Calm - N/A   Clear
9:53 PM 70.0 °F - 59.0 °F 68% 30.08 in 10.0 mi Calm Calm - N/A   Clear
10:53 PM 66.9 °F - 59.0 °F 76% 30.09 in 10.0 mi Calm Calm - N/A   Clear
11:53 PM 66.0 °F - 59.0 °F 78% 30.09 in 10.0 mi Calm Calm - N/A   Clear